BAW9940 RJGG-EGLL

Flight info

Callsign BAW9940
Flight time N/A
Altitude 39000
Route CHAUS Y155 TENRU Y88 DAIGO Y889 OATIS R580 OMOTO/N0489F350 R580 OPAKE DCT NATES R338 MARCC DCT JUJXI DCT 7001N16112W/N0488F370 7200N15729W 7252N15533W DCT AGMIF DCT 8025N11921W 8123N10339W DCT APSIN/M084F390 DCT 81N060W 79N040W 74N020W 7300N01810W 65N009W DCT NALAN/N0479F410 DCT AKOMU DCT VAMEB DCT NUGRA
Aircraft B772/H-SDE2E3FGHIJ5LORVWXY/LB1D1

Departure

Time N/A
Airport Chubu Centrair International Airport (RJGG)

Arrival

Time 2026-04-30 13:47
Airport London Heathrow Airport (EGLL)
Time Latitude Longitude Altitude Speed Heading
2026-04-30 12:16 60.67248 -5.82286 39226 ft 452 kts 169°
2026-04-30 12:17 60.58133 -5.77414 39226 ft 451 kts 169°
2026-04-30 12:17 60.52081 -5.74197 39234 ft 451 kts 169°
2026-04-30 12:18 60.46015 -5.70986 39233 ft 451 kts 169°
2026-04-30 12:18 60.39949 -5.67787 39236 ft 450 kts 169°
2026-04-30 12:19 60.33886 -5.64602 39240 ft 450 kts 169°
2026-04-30 12:19 60.27845 -5.61441 39239 ft 450 kts 169°
2026-04-30 12:20 60.21779 -5.58279 39245 ft 450 kts 169°
2026-04-30 12:20 60.15719 -5.55132 39238 ft 450 kts 169°
2026-04-30 12:21 60.09659 -5.51997 39250 ft 449 kts 169°
2026-04-30 12:21 60.03627 -5.48889 39257 ft 449 kts 169°
2026-04-30 12:22 59.97568 -5.45778 39245 ft 449 kts 169°
2026-04-30 12:22 59.91518 -5.42684 39254 ft 449 kts 169°
2026-04-30 12:23 59.85469 -5.39601 39258 ft 449 kts 169°
2026-04-30 12:23 59.79432 -5.36536 39264 ft 449 kts 169°
2026-04-30 12:24 59.73387 -5.33479 39263 ft 448 kts 169°
2026-04-30 12:24 59.67336 -5.30431 39260 ft 449 kts 169°
2026-04-30 12:25 59.61284 -5.27393 39261 ft 448 kts 169°
2026-04-30 12:25 59.55211 -5.24355 39263 ft 448 kts 169°
2026-04-30 12:26 59.49168 -5.21344 39266 ft 448 kts 169°
2026-04-30 12:26 59.43119 -5.18341 39268 ft 448 kts 169°
2026-04-30 12:27 59.37107 -5.15368 39268 ft 448 kts 169°
2026-04-30 12:27 59.31072 -5.12393 39271 ft 448 kts 169°
2026-04-30 12:28 59.24989 -5.09406 39268 ft 448 kts 169°
2026-04-30 12:28 59.18942 -5.06449 39272 ft 448 kts 169°
2026-04-30 12:29 59.12899 -5.03503 39276 ft 448 kts 169°
2026-04-30 12:29 59.06861 -5.00571 39272 ft 448 kts 169°
2026-04-30 12:30 59.00816 -4.97645 39279 ft 448 kts 169°
2026-04-30 12:30 58.94768 -4.94730 39273 ft 448 kts 169°
2026-04-30 12:31 58.88717 -4.91823 39276 ft 448 kts 169°
2026-04-30 12:31 58.82679 -4.88933 39263 ft 448 kts 169°
2026-04-30 12:32 58.76628 -4.86047 39264 ft 448 kts 169°
2026-04-30 12:32 58.70573 -4.83169 39263 ft 448 kts 169°
2026-04-30 12:33 58.64515 -4.80301 39258 ft 448 kts 169°
2026-04-30 12:33 58.58467 -4.77447 39259 ft 449 kts 169°
2026-04-30 12:34 58.52401 -4.74595 39253 ft 449 kts 169°
2026-04-30 12:34 58.46336 -4.71754 39253 ft 449 kts 169°
2026-04-30 12:35 58.40271 -4.68922 39247 ft 449 kts 169°
2026-04-30 12:35 58.34238 -4.66115 39251 ft 448 kts 169°
2026-04-30 12:36 58.28190 -4.63312 39250 ft 448 kts 169°
2026-04-30 12:36 58.23154 -4.60984 39248 ft 448 kts 169°
2026-04-30 12:37 58.16074 -4.57724 39249 ft 448 kts 169°
2026-04-30 12:37 58.11044 -4.55417 39260 ft 448 kts 169°
2026-04-30 12:38 58.04997 -4.52651 39245 ft 448 kts 169°
2026-04-30 12:38 57.98945 -4.49893 39257 ft 448 kts 169°
2026-04-30 12:39 57.92891 -4.47142 39252 ft 448 kts 169°
2026-04-30 12:39 57.86828 -4.44399 39255 ft 448 kts 169°
2026-04-30 12:40 57.80788 -4.41675 39257 ft 447 kts 169°
2026-04-30 12:40 57.74740 -4.38956 39267 ft 447 kts 169°
2026-04-30 12:41 57.68690 -4.36245 39267 ft 447 kts 169°
2026-04-30 12:41 57.62642 -4.33545 39259 ft 447 kts 169°
2026-04-30 12:42 57.56600 -4.30858 39265 ft 447 kts 169°
2026-04-30 12:42 57.50558 -4.28179 39264 ft 447 kts 169°
2026-04-30 12:43 57.44512 -4.25507 39264 ft 446 kts 169°
2026-04-30 12:43 57.38429 -4.22828 39262 ft 446 kts 169°
2026-04-30 12:44 57.32405 -4.20184 39265 ft 445 kts 169°
2026-04-30 12:44 57.26380 -4.17549 39263 ft 444 kts 169°
2026-04-30 12:45 57.20370 -4.14928 39262 ft 443 kts 169°
2026-04-30 12:45 57.14378 -4.12325 39269 ft 441 kts 169°
2026-04-30 12:46 57.08424 -4.09746 39270 ft 440 kts 169°
2026-04-30 12:46 57.02465 -4.07174 39270 ft 439 kts 169°
2026-04-30 12:47 56.96518 -4.04616 39279 ft 438 kts 169°
2026-04-30 12:47 56.90581 -4.02071 39295 ft 438 kts 169°
2026-04-30 12:48 56.84646 -3.99535 39297 ft 439 kts 169°
2026-04-30 12:48 56.78699 -3.97002 39292 ft 439 kts 169°
2026-04-30 12:49 56.72747 -3.94475 39298 ft 439 kts 168°
2026-04-30 12:49 56.66790 -3.91953 39305 ft 439 kts 168°
2026-04-30 12:50 56.60831 -3.89439 39309 ft 440 kts 168°
2026-04-30 12:50 56.54875 -3.86936 39310 ft 440 kts 168°
2026-04-30 12:51 56.48910 -3.84435 39311 ft 440 kts 168°
2026-04-30 12:51 56.42942 -3.81942 39310 ft 440 kts 168°
2026-04-30 12:52 56.36973 -3.79455 39308 ft 441 kts 168°
2026-04-30 12:52 56.31011 -3.76981 39306 ft 441 kts 168°
2026-04-30 12:53 56.25036 -3.74508 39308 ft 441 kts 168°
2026-04-30 12:53 56.19051 -3.72040 39307 ft 441 kts 168°
2026-04-30 12:54 56.13073 -3.69582 39305 ft 441 kts 168°
2026-04-30 12:54 56.07113 -3.67140 39309 ft 441 kts 168°
2026-04-30 12:55 56.01142 -3.64700 39305 ft 440 kts 168°
2026-04-30 12:55 55.95195 -3.62277 39313 ft 439 kts 168°
2026-04-30 12:56 55.89237 -3.59859 39315 ft 439 kts 168°
2026-04-30 12:56 55.83295 -3.57455 39305 ft 439 kts 168°
2026-04-30 12:57 55.77342 -3.55053 39301 ft 439 kts 168°
2026-04-30 12:57 55.71372 -3.52653 39286 ft 440 kts 168°
2026-04-30 12:58 55.65390 -3.50254 39274 ft 441 kts 168°
2026-04-30 12:58 55.59428 -3.47872 39264 ft 441 kts 168°
2026-04-30 12:59 55.53435 -3.45484 39264 ft 441 kts 168°
2026-04-30 12:59 55.47436 -3.43101 39264 ft 442 kts 168°
2026-04-30 13:00 55.41435 -3.40725 39255 ft 442 kts 168°
2026-04-30 13:00 55.35442 -3.38360 39264 ft 442 kts 168°
2026-04-30 13:01 55.29428 -3.35994 39255 ft 443 kts 168°
2026-04-30 13:01 55.23410 -3.33633 39252 ft 444 kts 168°
2026-04-30 13:02 55.17372 -3.31272 39265 ft 445 kts 168°
2026-04-30 13:02 55.11397 -3.28944 39254 ft 446 kts 168°
2026-04-30 13:03 55.05276 -3.26565 39257 ft 447 kts 168°
2026-04-30 13:03 54.99201 -3.24211 39248 ft 448 kts 168°
2026-04-30 13:04 54.93111 -3.21859 39246 ft 448 kts 168°
2026-04-30 13:04 54.87013 -3.19511 39247 ft 449 kts 168°
2026-04-30 13:05 54.80917 -3.17172 39243 ft 450 kts 168°
2026-04-30 13:06 54.71739 -3.13662 39246 ft 451 kts 168°
2026-04-30 13:06 54.65609 -3.11328 39239 ft 451 kts 168°
2026-04-30 13:07 54.59499 -3.09007 39234 ft 451 kts 168°
2026-04-30 13:07 54.53371 -3.06688 39229 ft 451 kts 168°
2026-04-30 13:08 54.47248 -3.04377 39241 ft 450 kts 168°
2026-04-30 13:08 54.41124 -3.02073 39241 ft 451 kts 168°
2026-04-30 13:09 54.35007 -2.99779 39238 ft 451 kts 168°
2026-04-30 13:09 54.28864 -2.97482 39226 ft 452 kts 168°
2026-04-30 13:10 54.22792 -2.95217 39229 ft 452 kts 168°
2026-04-30 13:10 54.16605 -2.92631 39237 ft 453 kts 163°
2026-04-30 13:11 54.10747 -2.88557 39220 ft 455 kts 158°
2026-04-30 13:11 54.04958 -2.84266 39228 ft 455 kts 158°
2026-04-30 13:12 53.99099 -2.80191 39212 ft 455 kts 163°
2026-04-30 13:12 53.93056 -2.76985 39208 ft 454 kts 164°
2026-04-30 13:13 53.84032 -2.72287 39212 ft 454 kts 163°
2026-04-30 13:14 53.74986 -2.67538 39212 ft 453 kts 163°
2026-04-30 13:14 53.65959 -2.62808 39214 ft 452 kts 163°
2026-04-30 13:15 53.58090 -2.58701 39214 ft 451 kts 163°
2026-04-30 13:16 53.52102 -2.55588 39224 ft 451 kts 163°
2026-04-30 13:16 53.46111 -2.52483 39229 ft 450 kts 163°
2026-04-30 13:17 53.37135 -2.47847 39234 ft 450 kts 163°
2026-04-30 13:18 53.28198 -2.43252 39234 ft 449 kts 163°
2026-04-30 13:18 53.19245 -2.38669 39234 ft 448 kts 163°
2026-04-30 13:19 53.13279 -2.35625 39225 ft 448 kts 163°
2026-04-30 13:19 53.07336 -2.32601 39224 ft 448 kts 163°
2026-04-30 13:20 53.01486 -2.29112 39198 ft 446 kts 150°
2026-04-30 13:20 52.96247 -2.23564 39206 ft 447 kts 148°
2026-04-30 13:21 52.91030 -2.17922 39228 ft 448 kts 148°
2026-04-30 13:22 52.83151 -2.09615 38586 ft 455 kts 148°
2026-04-30 13:22 52.80477 -2.06832 37902 ft 453 kts 148°
2026-04-30 13:22 52.75173 -2.01329 36476 ft 448 kts 148°
2026-04-30 13:23 52.72547 -1.98611 35725 ft 447 kts 148°
2026-04-30 13:23 52.67288 -1.93175 33999 ft 448 kts 148°
2026-04-30 13:24 52.62002 -1.87725 32020 ft 448 kts 148°
2026-04-30 13:24 52.56742 -1.82315 30376 ft 442 kts 148°
2026-04-30 13:25 52.51592 -1.77037 28800 ft 429 kts 148°
2026-04-30 13:25 52.46611 -1.71943 27386 ft 416 kts 148°
2026-04-30 13:26 52.39379 -1.64575 25318 ft 402 kts 148°
2026-04-30 13:26 52.34669 -1.59790 24002 ft 395 kts 148°
2026-04-30 13:27 52.30021 -1.55078 22588 ft 390 kts 148°
2026-04-30 13:28 52.23221 -1.48207 20646 ft 378 kts 148°
2026-04-30 13:28 52.18969 -1.43247 19761 ft 381 kts 140°
2026-04-30 13:28 52.16949 -1.40364 19373 ft 389 kts 139°
2026-04-30 13:29 52.12929 -1.34537 18596 ft 384 kts 140°
2026-04-30 13:29 52.08924 -1.28878 17744 ft 378 kts 140°
2026-04-30 13:30 52.02986 -1.20629 16582 ft 371 kts 140°
2026-04-30 13:31 51.99068 -1.15205 15795 ft 370 kts 140°
2026-04-30 13:31 51.93192 -1.07103 14528 ft 369 kts 140°
2026-04-30 13:32 51.89374 -1.01848 13554 ft 357 kts 140°
2026-04-30 13:32 51.85673 -0.96644 12587 ft 344 kts 133°
2026-04-30 13:33 51.83406 -0.90313 11704 ft 299 kts 117°
2026-04-30 13:33 51.81759 -0.84768 11012 ft 253 kts 118°
2026-04-30 13:34 51.80981 -0.82190 10718 ft 260 kts 118°
2026-04-30 13:34 51.78576 -0.74309 9702 ft 260 kts 118°
2026-04-30 13:35 51.77773 -0.71692 9352 ft 260 kts 118°
2026-04-30 13:35 51.76164 -0.66460 8671 ft 260 kts 118°
2026-04-30 13:36 51.74563 -0.61280 8032 ft 258 kts 118°
2026-04-30 13:36 51.73775 -0.58730 7706 ft 247 kts 119°
2026-04-30 13:36 51.71619 -0.55133 7319 ft 223 kts 161°
2026-04-30 13:37 51.70065 -0.54713 7304 ft 230 kts 174°
2026-04-30 13:37 51.66883 -0.54579 7221 ft 226 kts 176°
2026-04-30 13:38 51.63770 -0.54524 7198 ft 223 kts 184°
2026-04-30 13:38 51.62309 -0.55322 7228 ft 232 kts 206°
2026-04-30 13:38 51.60296 -0.59533 7196 ft 251 kts 251°
2026-04-30 13:39 51.59865 -0.65137 7217 ft 254 kts 261°
2026-04-30 13:39 51.59574 -0.70853 6751 ft 263 kts 260°
2026-04-30 13:40 51.59407 -0.73744 6356 ft 254 kts 260°
2026-04-30 13:40 51.59192 -0.76496 5885 ft 246 kts 248°
2026-04-30 13:40 51.58297 -0.78641 5470 ft 224 kts 209°
2026-04-30 13:40 51.56908 -0.79605 5197 ft 219 kts 188°
2026-04-30 13:41 51.55389 -0.79778 4885 ft 220 kts 174°
2026-04-30 13:41 51.53861 -0.79647 4560 ft 219 kts 173°
2026-04-30 13:41 51.52343 -0.79502 4269 ft 219 kts 173°
2026-04-30 13:41 51.50829 -0.79363 4016 ft 217 kts 172°
2026-04-30 13:42 51.49347 -0.79092 3703 ft 211 kts 158°
2026-04-30 13:42 51.48230 -0.77715 3443 ft 204 kts 123°
2026-04-30 13:42 51.47669 -0.73409 3045 ft 190 kts 95°
2026-04-30 13:43 51.47657 -0.71307 2879 ft 189 kts 92°
2026-04-30 13:43 51.47672 -0.69187 2638 ft 189 kts 92°
2026-04-30 13:43 51.47682 -0.67148 2395 ft 174 kts 92°
2026-04-30 13:43 51.47690 -0.65331 2195 ft 159 kts 92°
2026-04-30 13:44 51.47695 -0.63617 1941 ft 151 kts 93°
2026-04-30 13:44 51.47699 -0.61972 1763 ft 148 kts 91°
2026-04-30 13:44 51.47705 -0.60330 1590 ft 145 kts 92°
2026-04-30 13:44 51.47713 -0.58754 1376 ft 135 kts 93°
2026-04-30 13:45 51.47722 -0.56006 1050 ft 123 kts 94°
2026-04-30 13:45 51.47725 -0.54719 907 ft 122 kts 91°
2026-04-30 13:45 51.47730 -0.53416 739 ft 114 kts 90°
2026-04-30 13:46 51.47734 -0.52111 578 ft 117 kts 89°
2026-04-30 13:46 51.47739 -0.50856 403 ft 114 kts 89°
2026-04-30 13:46 51.47742 -0.49640 271 ft 109 kts 89°
2026-04-30 13:46 51.47748 -0.48436 140 ft 114 kts 90°
2026-04-30 13:47 51.47756 -0.47265 94 ft 98 kts 89°
2026-04-30 13:47 51.47758 -0.46338 95 ft 65 kts 90°
2026-04-30 13:47 51.47758 -0.45812 92 ft 35 kts 90°
2026-04-30 13:47 51.47724 -0.45498 93 ft 12 kts 137°
2026-04-30 13:48 51.47653 -0.45470 91 ft 5 kts 178°
2026-04-30 13:48 51.47591 -0.45467 91 ft 14 kts 178°
2026-04-30 13:48 51.47511 -0.45559 95 ft 19 kts 256°
2026-04-30 13:48 51.47507 -0.45705 94 ft 16 kts 272°
2026-04-30 13:49 51.47516 -0.45899 91 ft 16 kts 272°
2026-04-30 13:49 51.47515 -0.45993 91 ft 7 kts 269°
2026-04-30 13:49 51.47515 -0.46072 91 ft 7 kts 269°
2026-04-30 13:49 51.47514 -0.46155 93 ft 7 kts 269°
2026-04-30 13:50 51.47514 -0.46238 94 ft 8 kts 271°
2026-04-30 13:50 51.47515 -0.46405 91 ft 8 kts 270°
2026-04-30 13:50 51.47515 -0.46489 91 ft 8 kts 270°
2026-04-30 13:51 51.47514 -0.46574 94 ft 8 kts 269°
2026-04-30 13:51 51.47513 -0.46659 94 ft 8 kts 269°
2026-04-30 13:51 51.47502 -0.46742 93 ft 8 kts 252°
2026-04-30 13:51 51.47496 -0.46798 95 ft 8 kts 265°
2026-04-30 13:52 51.47492 -0.46914 91 ft 8 kts 266°
2026-04-30 13:52 51.47490 -0.47002 93 ft 8 kts 270°
2026-04-30 13:52 51.47490 -0.47060 92 ft 8 kts 270°
2026-04-30 13:52 51.47489 -0.47149 92 ft 8 kts 270°
2026-04-30 13:53 51.47489 -0.47239 93 ft 8 kts 270°
2026-04-30 13:53 51.47490 -0.47331 93 ft 8 kts 270°
2026-04-30 13:53 51.47490 -0.47421 91 ft 8 kts 270°
2026-04-30 13:53 51.47490 -0.47513 91 ft 8 kts 270°
2026-04-30 13:54 51.47490 -0.47605 92 ft 8 kts 270°
2026-04-30 13:54 51.47490 -0.47694 91 ft 8 kts 270°
2026-04-30 13:54 51.47490 -0.47789 91 ft 9 kts 270°
2026-04-30 13:54 51.47461 -0.47862 94 ft 9 kts 205°
2026-04-30 13:55 51.47402 -0.47875 91 ft 9 kts 178°
2026-04-30 13:55 51.47340 -0.47872 94 ft 9 kts 179°
2026-04-30 13:55 51.47278 -0.47874 94 ft 9 kts 180°
2026-04-30 13:55 51.47221 -0.47893 96 ft 8 kts 225°
2026-04-30 13:56 51.47213 -0.47979 92 ft 5 kts 269°
2026-04-30 13:56 51.47213 -0.47996 92 ft 0 kts 270°
2026-04-30 13:56 51.47213 -0.48004 92 ft 1 kts 269°
2026-04-30 13:56 51.47213 -0.48019 91 ft 2 kts 269°
2026-04-30 13:57 51.47213 -0.48028 91 ft 0 kts 269°